MST,Max TemperatureF,Mean TemperatureF,Min TemperatureF,Max Dew PointF,MeanDew PointF,Min DewpointF,Max Humidity, Mean Humidity, Min Humidity, Max Sea Level PressureIn, Mean Sea Level PressureIn, Min Sea Level PressureIn, Max VisibilityMiles, Mean VisibilityMiles, Min VisibilityMiles, Max Wind SpeedMPH, Mean Wind SpeedMPH, Max Gust SpeedMPH,PrecipitationIn, CloudCover, Events, WindDirDegrees
2012-11-1,64,48,32,34,27,18,87,55,18,30.11,30.05,30.01,10,10,5,24,4,32,0.00,0,,195
2012-11-2,60,45,30,32,28,27,87,60,27,30.19,30.13,30.08,10,10,7,8,1,,0.00,1,Thunderstorm,126
2012-11-3,60,40,21,30,26,19,93,68,27,30.32,30.25,30.19,10,10,5,9,1,,0.00,0,,149
2012-11-4,62,44,26,30,27,23,93,66,27,30.45,30.39,30.32,10,10,10,8,1,,0.00,0,,122
2012-11-5,62,44,26,32,30,23,100,70,32,30.51,30.43,30.36,10,10,5,12,1,,0.00,0,,173
2012-11-6,64,44,23,32,28,21,93,69,28,30.45,30.35,30.26,10,10,5,6,0,,0.00,0,Thunderstorm,124
2012-11-7,68,44,21,30,25,19,93,63,20,30.26,30.12,29.99,10,10,5,21,2,26,0.00,0,,220
2012-11-8,64,45,26,32,24,19,86,48,19,29.99,29.79,29.65,10,10,7,29,5,37,0.00,1,Rain,206
2012-11-9,53,42,30,39,33,28,100,84,44,29.64,29.61,29.54,10,5,0,17,7,32,0.00,8,Rain-Snow-Thunderstorm,183
2012-11-10,32,22,12,28,23,9,100,87,69,29.94,29.75,29.61,10,6,0,9,1,,0.00,7,Snow,119
2012-11-11,32,16,1,21,14,-2,100,81,51,30.44,30.18,29.96,10,8,1,10,2,,0.00,4,Snow,96
2012-11-12,24,10,-4,21,9,-8,92,79,63,30.50,30.41,30.35,10,10,0,5,0,,0.00,2,Fog-Snow,82
2012-11-13,35,22,8,23,16,5,93,84,60,30.40,30.34,30.29,10,10,0,6,1,,0.00,0,Fog,123
2012-11-14,37,26,14,30,23,12,100,86,60,30.29,30.25,30.19,10,9,0,5,0,,0.00,1,Fog,125
2012-11-15,42,30,17,32,24,14,100,86,61,30.36,30.29,30.22,10,9,0,5,0,,0.00,0,Fog,119
2012-11-16,44,35,26,34,29,23,100,89,53,30.22,30.15,30.10,10,10,4,21,1,28,0.00,4,,141
2012-11-17,42,38,33,41,36,32,100,95,81,30.14,30.08,30.02,10,6,0,8,1,,0.00,8,Fog-Snow,2
2012-11-18,46,40,35,37,36,34,100,86,62,30.16,30.06,30.00,10,10,5,15,3,21,0.00,8,Rain,151
2012-11-19,53,42,32,34,32,28,100,77,44,30.31,30.24,30.16,10,10,10,8,2,,0.00,2,,213
2012-11-20,59,44,28,34,30,27,100,68,31,30.30,30.20,30.12,10,10,10,10,2,,0.00,0,,183
2012-11-21,59,46,32,32,27,19,93,59,22,30.12,30.06,30.01,10,10,10,21,4,29,0.00,1,,219
2012-11-22,48,37,24,32,26,21,86,62,43,30.51,30.33,30.11,10,10,10,13,7,,0.00,1,,138
2012-11-23,46,32,19,28,21,18,93,74,36,30.55,30.45,30.36,10,10,10,6,0,,0.00,0,,137
2012-11-24,55,37,19,28,23,18,93,70,28,30.36,30.23,30.11,10,10,7,8,1,,0.00,0,,130
2012-11-25,51,36,21,27,22,18,93,69,28,30.12,30.04,29.98,10,10,10,13,1,,0.00,1,,81
2012-11-26,46,32,19,28,23,18,100,80,46,30.29,30.22,30.13,10,10,7,7,1,,0.00,0,,134
2012-11-27,55,36,17,27,20,14,93,70,23,30.34,30.27,30.22,10,10,10,9,0,,0.00,0,,171
2012-11-28,59,41,23,28,21,18,93,58,22,30.27,30.17,30.05,10,10,7,17,2,25,0.00,1,,171
2012-11-29,53,42,32,32,29,23,87,61,35,30.18,30.11,30.08,10,10,7,17,7,24,0.00,2,,184
2012-11-30,51,44,37,39,32,28,93,61,44,30.09,30.00,29.94,10,9,4,20,5,26,0.00,7,Rain,195